Regional Weather Roundup
Issued by NWS

Home | Current Version | Previous Version | Text Only | Print | Product List | Glossary Off
Versions: 1 2 3 4 5 6 7 8 9 10 11 12 13 14 15 16 17 18 19 20 21 22 23 24 25 26 27

000
ASUS45 KCYS 230510
RWRWY

WYOMING REGIONAL WEATHER ROUNDUP
NATIONAL WEATHER SERVICE CHEYENNE WY
1100 PM MDT FRI JUL 22 2016

NOTE:  "FAIR" INDICATES FEW OR NO CLOUDS BELOW 12,000 FEET
WITH NO SIGNIFICANT WEATHER AND/OR OBSTRUCTIONS TO VISIBILITY.

WYZ001-230600-
YELLOWSTONE NATIONAL PARK

CITY           SKY/WX    TMP DP  RH WIND       PRES   REMARKS
LK YELLOWSTONE   N/A     58  24  27 VRB3      30.29F
W YELLOWSTONE  NOT AVBL

$$
WYZ002>013-054>058-071-098>099-230600-
NORTHERN WYOMING

CITY           SKY/WX    TMP DP  RH WIND       PRES   REMARKS
JACKSON        FAIR      66  21  18 S8        30.22S
CODY           FAIR      73  34  23 SW9       30.02F
GREYBULL       FAIR      78  40  25 SE5       29.90S
WORLAND        FAIR      79  41  25 S10       29.93F
SHERIDAN       FAIR      74  47  38 S7        29.87F
BUFFALO        FAIR      77  42  28 S9        29.98F
GILLETTE       FAIR      75  57  53 E3        29.94F
HULETT         FAIR      73  59  60 NE3       30.01F THUNDER
NEWCASTLE      FAIR      73  50  43 E15       30.00F

$$
WYZ014>020-022>026-101>103-230600-
CENTRAL WYOMING

CITY           SKY/WX    TMP DP  RH WIND       PRES   REMARKS
BIG PINEY      FAIR      62  43  49 N12       30.27R
PINEDALE       FAIR      55  50  82 W7        30.28R
DUBOIS         FAIR      63  32  31 NW8       30.25R
LANDER         FAIR      75  42  30 SW15      30.09F
RIVERTON       FAIR      74  44  34 SW10      30.09F
CASPER         FAIR      69  44  40 SW7       30.07F
DOUGLAS          N/A    N/A N/A N/A MISG      30.07S

$$
WYZ021-027>030-104>119-230600-
SOUTHERN WYOMING

CITY           SKY/WX    TMP DP  RH WIND       PRES   REMARKS
EVANSTON       FAIR      67  26  21 W9        30.29R
KEMMERER         N/A    N/A N/A N/A NW10      30.28S
FORT BRIDGER   FAIR      74  33  22 SW13      30.29S
ROCK SPRINGS   FAIR      72  39  30 SW13      30.23S
DIXON          FAIR      64  49  58 E5        30.29F
RAWLINS        FAIR      72  41  32 SW14G24   30.23F
SARATOGA       FAIR      68  41  37 S10       30.27F
LARAMIE        FAIR      68  42  38 CALM      30.27F
CHEYENNE       FAIR      77  47  34 W9        30.17S
TORRINGTON     FAIR      70  58  65 SE9       30.02R
PINE BLUFFS    FAIR      70  61  73 W5        30.13R

$$




USA.gov is the U.S. government's official web portal to all federal, state and local government web resources and services.